Time,TemperatureF,DewpointF,PressureIn,WindDirection,WindDirectionDegrees,WindSpeedMPH,WindSpeedGustMPH,Humidity,HourlyPrecipIn,Conditions,Clouds,dailyrainin,SoftwareType,DateUTC
2013-04-14 00:00:00,43.1,32.2,29.94,WSW,240,0.0,0.0,65,0.00,,---,0.00,VWS V14.01,2013-04-14 04:00:00,
2013-04-14 00:05:00,42.7,32.5,29.95,NW,305,0.0,1.0,67,0.00,,---,0.00,VWS V14.01,2013-04-14 04:05:00,
2013-04-14 00:10:00,42.4,31.9,29.95,West,281,0.0,1.0,66,0.00,,---,0.00,VWS V14.01,2013-04-14 04:10:00,
2013-04-14 00:15:00,42.2,32.4,29.95,West,281,0.0,1.0,68,0.00,,---,0.00,VWS V14.01,2013-04-14 04:15:00,
2013-04-14 00:20:00,42.0,32.6,29.95,ENE,61,0.0,1.0,69,0.00,,---,0.00,VWS V14.01,2013-04-14 04:20:00,
2013-04-14 00:25:00,41.8,32.4,29.95,West,280,0.0,1.0,69,0.00,,---,0.00,VWS V14.01,2013-04-14 04:25:00,
2013-04-14 00:30:00,41.6,32.2,29.96,WSW,250,0.0,2.0,69,0.00,,---,0.00,VWS V14.01,2013-04-14 04:30:00,
2013-04-14 00:35:00,41.5,32.5,29.96,East,89,2.0,2.0,70,0.00,,---,0.00,VWS V14.01,2013-04-14 04:35:00,
2013-04-14 00:40:00,41.5,31.7,29.96,East,79,0.0,2.0,68,0.00,,---,0.00,VWS V14.01,2013-04-14 04:40:00,
2013-04-14 00:45:00,41.5,31.7,29.96,East,79,0.0,2.0,68,0.00,,---,0.00,VWS V14.01,2013-04-14 04:45:00,
2013-04-14 00:50:00,41.3,31.9,29.96,ENE,74,0.0,2.0,69,0.00,,---,0.00,VWS V14.01,2013-04-14 04:50:00,
2013-04-14 00:55:00,41.2,31.8,29.96,West,274,0.0,2.0,69,0.00,,---,0.00,VWS V14.01,2013-04-14 04:55:00,
2013-04-14 01:00:00,41.1,32.1,29.97,West,273,0.0,2.0,70,0.00,,---,0.00,VWS V14.01,2013-04-14 05:00:00,
2013-04-14 01:05:00,40.7,32.0,29.97,West,274,0.0,1.0,71,0.00,,---,0.00,VWS V14.01,2013-04-14 05:05:00,
2013-04-14 01:10:00,40.5,31.9,29.97,NW,314,0.0,1.0,71,0.00,,---,0.00,VWS V14.01,2013-04-14 05:10:00,
2013-04-14 01:15:00,40.4,31.4,29.97,WNW,285,0.0,2.0,70,0.00,,---,0.00,VWS V14.01,2013-04-14 05:15:00,
2013-04-14 01:20:00,40.3,31.7,29.97,WNW,285,0.0,2.0,71,0.00,,---,0.00,VWS V14.01,2013-04-14 05:20:00,
2013-04-14 01:25:00,40.2,31.6,29.97,WNW,285,0.0,2.0,71,0.00,,---,0.00,VWS V14.01,2013-04-14 05:25:00,
2013-04-14 01:30:00,40.1,31.8,29.97,WNW,283,0.0,2.0,72,0.00,,---,0.00,VWS V14.01,2013-04-14 05:30:00,
2013-04-14 01:35:00,40.0,31.7,29.97,WNW,285,0.0,0.0,72,0.00,,---,0.00,VWS V14.01,2013-04-14 05:35:00,
2013-04-14 01:40:00,39.9,32.0,29.97,West,259,0.0,1.0,73,0.00,,---,0.00,VWS V14.01,2013-04-14 05:40:00,
2013-04-14 01:45:00,39.8,31.5,29.97,West,266,0.0,1.0,72,0.00,,---,0.00,VWS V14.01,2013-04-14 05:45:00,
2013-04-14 01:50:00,39.7,31.8,29.97,NNE,19,1.0,1.0,73,0.00,,---,0.00,VWS V14.01,2013-04-14 05:50:00,
2013-04-14 01:55:00,39.8,31.9,29.97,West,275,0.0,2.0,73,0.00,,---,0.00,VWS V14.01,2013-04-14 05:55:00,
2013-04-14 02:00:00,39.9,32.0,29.96,ENE,77,1.0,2.0,73,0.00,,---,0.00,VWS V14.01,2013-04-14 06:00:00,
2013-04-14 02:05:00,39.9,32.0,29.96,NE,43,0.0,2.0,73,0.00,,---,0.00,VWS V14.01,2013-04-14 06:05:00,
2013-04-14 02:10:00,39.9,32.3,29.96,West,259,0.0,2.0,74,0.00,,---,0.00,VWS V14.01,2013-04-14 06:10:00,
2013-04-14 02:15:00,39.7,32.1,29.96,WSW,257,0.0,2.0,74,0.00,,---,0.00,VWS V14.01,2013-04-14 06:15:00,
2013-04-14 02:20:00,39.4,31.8,29.96,WSW,257,0.0,2.0,74,0.00,,---,0.00,VWS V14.01,2013-04-14 06:20:00,
2013-04-14 02:25:00,39.1,31.9,29.96,WSW,258,0.0,2.0,75,0.00,,---,0.00,VWS V14.01,2013-04-14 06:25:00,
2013-04-14 02:30:00,38.8,31.9,29.96,WSW,257,0.0,2.0,76,0.00,,---,0.00,VWS V14.01,2013-04-14 06:30:00,
2013-04-14 02:35:00,38.7,32.1,29.96,West,271,0.0,0.0,77,0.00,,---,0.00,VWS V14.01,2013-04-14 06:35:00,
2013-04-14 02:40:00,38.5,31.6,29.96,West,271,0.0,0.0,76,0.00,,---,0.00,VWS V14.01,2013-04-14 06:40:00,
2013-04-14 02:45:00,38.4,31.8,29.96,West,269,0.0,2.0,77,0.00,,---,0.00,VWS V14.01,2013-04-14 06:45:00,
2013-04-14 02:50:00,38.4,31.8,29.97,NE,55,1.0,2.0,77,0.00,,---,0.00,VWS V14.01,2013-04-14 06:50:00,
2013-04-14 02:55:00,38.5,31.9,29.97,WNW,295,0.0,2.0,77,0.00,,---,0.00,VWS V14.01,2013-04-14 06:55:00,
2013-04-14 03:00:00,38.6,32.0,29.97,WNW,294,1.0,2.0,77,0.00,,---,0.00,VWS V14.01,2013-04-14 07:00:00,
2013-04-14 03:05:00,38.6,32.3,29.97,WNW,294,0.0,1.0,78,0.00,,---,0.00,VWS V14.01,2013-04-14 07:05:00,
2013-04-14 03:10:00,38.7,32.4,29.97,WNW,294,0.0,1.0,78,0.00,,---,0.00,VWS V14.01,2013-04-14 07:10:00,
2013-04-14 03:15:00,38.5,32.2,29.97,North,11,0.0,1.0,78,0.00,,---,0.00,VWS V14.01,2013-04-14 07:15:00,
2013-04-14 03:20:00,38.4,32.5,29.97,North,11,0.0,1.0,79,0.00,,---,0.00,VWS V14.01,2013-04-14 07:20:00,
2013-04-14 03:25:00,38.3,32.0,29.97,SW,236,0.0,1.0,78,0.00,,---,0.00,VWS V14.01,2013-04-14 07:25:00,
2013-04-14 03:30:00,38.3,32.0,29.97,SW,236,0.0,1.0,78,0.00,,---,0.00,VWS V14.01,2013-04-14 07:30:00,
2013-04-14 03:35:00,38.2,32.0,29.97,SW,217,0.0,0.0,78,0.00,,---,0.00,VWS V14.01,2013-04-14 07:35:00,
2013-04-14 03:40:00,37.9,31.7,29.97,WNW,297,0.0,0.0,78,0.00,,---,0.00,VWS V14.01,2013-04-14 07:40:00,
2013-04-14 03:45:00,37.8,31.9,29.97,ESE,111,0.0,2.0,79,0.00,,---,0.00,VWS V14.01,2013-04-14 07:45:00,
2013-04-14 03:50:00,37.7,32.1,29.97,NE,47,0.0,2.0,80,0.00,,---,0.00,VWS V14.01,2013-04-14 07:50:00,
2013-04-14 03:55:00,37.7,32.1,29.98,NE,44,0.0,2.0,80,0.00,,---,0.00,VWS V14.01,2013-04-14 07:55:00,
2013-04-14 04:00:00,37.6,32.0,29.98,NE,44,0.0,2.0,80,0.00,,---,0.00,VWS V14.01,2013-04-14 08:00:00,
2013-04-14 04:05:00,37.5,31.9,29.98,NE,44,0.0,1.0,80,0.00,,---,0.00,VWS V14.01,2013-04-14 08:05:00,
2013-04-14 04:10:00,37.4,31.8,29.98,West,267,0.0,1.0,80,0.00,,---,0.00,VWS V14.01,2013-04-14 08:10:00,
2013-04-14 04:15:00,37.3,32.0,29.98,West,267,0.0,1.0,81,0.00,,---,0.00,VWS V14.01,2013-04-14 08:15:00,
2013-04-14 04:20:00,37.3,32.0,29.98,West,268,0.0,1.0,81,0.00,,---,0.00,VWS V14.01,2013-04-14 08:20:00,
2013-04-14 04:25:00,37.2,31.9,29.98,West,262,1.0,1.0,81,0.00,,---,0.00,VWS V14.01,2013-04-14 08:25:00,
2013-04-14 04:30:00,37.1,32.1,29.98,West,264,0.0,1.0,82,0.00,,---,0.00,VWS V14.01,2013-04-14 08:30:00,
2013-04-14 04:35:00,37.1,31.8,29.99,West,264,1.0,1.0,81,0.00,,---,0.00,VWS V14.01,2013-04-14 08:35:00,
2013-04-14 04:40:00,36.9,31.9,29.98,West,264,0.0,1.0,82,0.00,,---,0.00,VWS V14.01,2013-04-14 08:40:00,
2013-04-14 04:45:00,36.8,31.8,29.98,West,262,0.0,2.0,82,0.00,,---,0.00,VWS V14.01,2013-04-14 08:45:00,
2013-04-14 04:50:00,36.9,32.2,29.99,East,87,0.0,2.0,83,0.00,,---,0.00,VWS V14.01,2013-04-14 08:50:00,
2013-04-14 04:55:00,36.8,31.8,29.98,East,86,0.0,2.0,82,0.00,,---,0.00,VWS V14.01,2013-04-14 08:55:00,
2013-04-14 05:00:00,36.7,31.7,29.98,East,86,0.0,2.0,82,0.00,,---,0.00,VWS V14.01,2013-04-14 09:00:00,
2013-04-14 05:05:00,36.7,32.0,29.98,East,86,0.0,0.0,83,0.00,,---,0.00,VWS V14.01,2013-04-14 09:05:00,
2013-04-14 05:10:00,36.5,31.5,29.99,East,86,0.0,0.0,82,0.00,,---,0.00,VWS V14.01,2013-04-14 09:10:00,
2013-04-14 05:15:00,36.4,31.7,30.00,East,86,0.0,0.0,83,0.00,,---,0.00,VWS V14.01,2013-04-14 09:15:00,
2013-04-14 05:20:00,36.3,31.6,30.00,East,86,0.0,0.0,83,0.00,,---,0.00,VWS V14.01,2013-04-14 09:20:00,
2013-04-14 05:25:00,36.2,31.8,29.99,East,86,0.0,0.0,84,0.00,,---,0.00,VWS V14.01,2013-04-14 09:25:00,
2013-04-14 05:30:00,36.2,31.5,29.99,East,86,0.0,0.0,83,0.00,,---,0.00,VWS V14.01,2013-04-14 09:30:00,
2013-04-14 05:35:00,36.1,31.5,30.00,East,86,0.0,0.0,83,0.00,,---,0.00,VWS V14.01,2013-04-14 09:35:00,
2013-04-14 05:40:00,36.1,31.7,30.00,East,86,0.0,0.0,84,0.00,,---,0.00,VWS V14.01,2013-04-14 09:40:00,
2013-04-14 05:45:00,36.0,31.6,30.00,North,349,0.0,0.0,84,0.00,,---,0.00,VWS V14.01,2013-04-14 09:45:00,
2013-04-14 05:50:00,36.0,31.6,30.00,WNW,285,0.0,1.0,84,0.00,,---,0.00,VWS V14.01,2013-04-14 09:50:00,
2013-04-14 05:55:00,36.0,31.6,30.01,WNW,289,0.0,1.0,84,0.00,,---,0.00,VWS V14.01,2013-04-14 09:55:00,
2013-04-14 06:00:00,36.0,31.6,30.01,WNW,290,0.0,1.0,84,0.00,,---,0.00,VWS V14.01,2013-04-14 10:00:00,
2013-04-14 06:05:00,35.9,31.5,30.00,WNW,289,0.0,0.0,84,0.00,,---,0.00,VWS V14.01,2013-04-14 10:05:00,
2013-04-14 06:10:00,35.9,31.5,30.01,WNW,287,0.0,1.0,84,0.00,,---,0.00,VWS V14.01,2013-04-14 10:10:00,
2013-04-14 06:15:00,35.9,31.5,30.01,WNW,287,0.0,1.0,84,0.00,,---,0.00,VWS V14.01,2013-04-14 10:15:00,
2013-04-14 06:20:00,35.8,31.5,30.01,WNW,287,0.0,1.0,84,0.00,,---,0.00,VWS V14.01,2013-04-14 10:20:00,
2013-04-14 06:25:00,35.8,31.5,30.01,WNW,287,0.0,1.0,84,0.00,,---,0.00,VWS V14.01,2013-04-14 10:25:00,
2013-04-14 06:30:00,35.6,31.2,30.02,WNW,287,0.0,1.0,84,0.00,,---,0.00,VWS V14.01,2013-04-14 10:30:00,
2013-04-14 06:35:00,35.5,31.5,30.02,WNW,287,0.0,0.0,85,0.00,,---,0.00,VWS V14.01,2013-04-14 10:35:00,
2013-04-14 06:40:00,36.1,31.7,30.02,WNW,288,0.0,1.0,84,0.00,,---,0.00,VWS V14.01,2013-04-14 10:40:00,
2013-04-14 06:45:00,36.1,31.7,30.03,WNW,288,0.0,1.0,84,0.00,,---,0.00,VWS V14.01,2013-04-14 10:45:00,
2013-04-14 06:50:00,36.1,31.7,30.03,WNW,288,0.0,1.0,84,0.00,,---,0.00,VWS V14.01,2013-04-14 10:50:00,
2013-04-14 06:55:00,36.1,31.7,30.03,WNW,288,0.0,1.0,84,0.00,,---,0.00,VWS V14.01,2013-04-14 10:55:00,
2013-04-14 07:00:00,36.1,31.7,30.03,WNW,288,0.0,1.0,84,0.00,,---,0.00,VWS V14.01,2013-04-14 11:00:00,
2013-04-14 07:05:00,36.1,31.7,30.03,WNW,288,0.0,0.0,84,0.00,,---,0.00,VWS V14.01,2013-04-14 11:05:00,
2013-04-14 07:10:00,36.1,31.7,30.03,WNW,288,0.0,0.0,84,0.00,,---,0.00,VWS V14.01,2013-04-14 11:10:00,
2013-04-14 07:15:00,36.1,31.7,30.04,WNW,288,0.0,0.0,84,0.00,,---,0.00,VWS V14.01,2013-04-14 11:15:00,
2013-04-14 07:20:00,36.1,31.7,30.04,WNW,288,0.0,0.0,84,0.00,,---,0.00,VWS V14.01,2013-04-14 11:20:00,
2013-04-14 07:25:00,36.1,31.7,30.04,WNW,288,0.0,0.0,84,0.00,,---,0.00,VWS V14.01,2013-04-14 11:25:00,
2013-04-14 07:30:00,36.1,31.7,30.04,WNW,288,0.0,0.0,84,0.00,,---,0.00,VWS V14.01,2013-04-14 11:30:00,
2013-04-14 07:35:00,36.1,31.7,30.04,WNW,288,0.0,0.0,84,0.00,,---,0.00,VWS V14.01,2013-04-14 11:35:00,
2013-04-14 07:40:00,36.1,31.7,30.04,WNW,288,0.0,0.0,84,0.00,,---,0.00,VWS V14.01,2013-04-14 11:40:00,
2013-04-14 07:45:00,36.1,31.7,30.04,WNW,288,0.0,0.0,84,0.00,,---,0.00,VWS V14.01,2013-04-14 11:45:00,
2013-04-14 07:50:00,36.1,31.7,30.05,WNW,288,0.0,0.0,84,0.00,,---,0.00,VWS V14.01,2013-04-14 11:50:00,
2013-04-14 07:55:00,36.1,31.7,30.05,ESE,121,0.0,0.0,84,0.00,,---,0.00,VWS V14.01,2013-04-14 11:55:00,
2013-04-14 08:00:00,44.9,38.1,30.04,ESE,121,0.0,0.0,77,0.00,,---,0.00,VWS V14.01,2013-04-14 12:00:00,
2013-04-14 08:05:00,46.1,39.3,30.04,ESE,121,0.0,0.0,77,0.00,,---,0.00,VWS V14.01,2013-04-14 12:05:00,
2013-04-14 08:10:00,47.4,39.5,30.04,ESE,122,0.0,0.0,74,0.00,,---,0.00,VWS V14.01,2013-04-14 12:10:00,
2013-04-14 08:15:00,48.3,37.5,30.05,ENE,65,2.0,4.0,66,0.00,,---,0.00,VWS V14.01,2013-04-14 12:15:00,
2013-04-14 08:20:00,48.9,37.3,30.06,SE,124,1.0,4.0,64,0.00,,---,0.00,VWS V14.01,2013-04-14 12:20:00,
2013-04-14 08:25:00,49.4,38.5,30.06,South,170,1.0,4.0,66,0.00,,---,0.00,VWS V14.01,2013-04-14 12:25:00,
2013-04-14 08:30:00,49.9,39.0,30.07,SW,232,1.0,4.0,66,0.00,,---,0.00,VWS V14.01,2013-04-14 12:30:00,
2013-04-14 08:35:00,50.8,40.2,30.07,SW,217,0.0,1.0,67,0.00,,---,0.00,VWS V14.01,2013-04-14 12:35:00,
2013-04-14 08:40:00,51.8,40.4,30.06,SSE,147,0.0,2.0,65,0.00,,---,0.00,VWS V14.01,2013-04-14 12:40:00,
2013-04-14 08:45:00,52.5,39.9,30.06,SE,146,0.0,2.0,62,0.00,,---,0.00,VWS V14.01,2013-04-14 12:45:00,
2013-04-14 08:50:00,53.5,40.4,30.06,SSE,147,0.0,2.0,61,0.00,,---,0.00,VWS V14.01,2013-04-14 12:50:00,
2013-04-14 08:55:00,54.7,39.8,30.06,SSE,155,1.0,2.0,57,0.00,,---,0.00,VWS V14.01,2013-04-14 12:55:00,
2013-04-14 09:00:00,55.4,39.0,30.06,SSE,150,0.0,2.0,54,0.00,,---,0.00,VWS V14.01,2013-04-14 13:00:00,
2013-04-14 09:05:00,56.1,37.7,30.07,West,261,1.0,1.0,50,0.00,,---,0.00,VWS V14.01,2013-04-14 13:05:00,
2013-04-14 09:10:00,57.0,38.6,30.07,SE,142,2.0,2.0,50,0.00,,---,0.00,VWS V14.01,2013-04-14 13:10:00,
2013-04-14 09:15:00,57.4,37.9,30.07,SE,141,0.0,3.0,48,0.00,,---,0.00,VWS V14.01,2013-04-14 13:15:00,
2013-04-14 09:20:00,58.0,38.4,30.07,SW,229,0.0,3.0,48,0.00,,---,0.00,VWS V14.01,2013-04-14 13:20:00,
2013-04-14 09:25:00,58.6,39.0,30.07,SSE,149,2.0,3.0,48,0.00,,---,0.00,VWS V14.01,2013-04-14 13:25:00,
2013-04-14 09:30:00,59.0,38.3,30.07,South,175,0.0,3.0,46,0.00,,---,0.00,VWS V14.01,2013-04-14 13:30:00,
2013-04-14 09:35:00,59.3,39.1,30.07,South,169,1.0,3.0,47,0.00,,---,0.00,VWS V14.01,2013-04-14 13:35:00,
2013-04-14 09:40:00,59.9,39.6,30.07,SW,223,2.0,3.0,47,0.00,,---,0.00,VWS V14.01,2013-04-14 13:40:00,
2013-04-14 09:45:00,60.3,39.5,30.06,SSE,156,0.0,3.0,46,0.00,,---,0.00,VWS V14.01,2013-04-14 13:45:00,
2013-04-14 09:50:00,60.7,40.4,30.06,SSW,199,0.0,3.0,47,0.00,,---,0.00,VWS V14.01,2013-04-14 13:50:00,
2013-04-14 09:55:00,61.1,38.5,30.06,SW,225,0.0,3.0,43,0.00,,---,0.00,VWS V14.01,2013-04-14 13:55:00,
2013-04-14 10:00:00,61.6,40.1,30.06,SSE,167,2.0,3.0,45,0.00,,---,0.00,VWS V14.01,2013-04-14 14:00:00,
2013-04-14 10:05:00,62.0,39.9,30.06,West,280,1.0,3.0,44,0.00,,---,0.00,VWS V14.01,2013-04-14 14:05:00,
2013-04-14 10:10:00,62.1,40.5,30.06,SW,233,3.0,4.0,45,0.00,,---,0.00,VWS V14.01,2013-04-14 14:10:00,
2013-04-14 10:15:00,61.9,39.8,30.06,SSE,163,3.0,5.0,44,0.00,,---,0.00,VWS V14.01,2013-04-14 14:15:00,
2013-04-14 10:20:00,61.6,39.5,30.07,ENE,77,5.0,7.0,44,0.00,,---,0.00,VWS V14.01,2013-04-14 14:20:00,
2013-04-14 10:25:00,60.4,40.1,30.06,ENE,75,5.0,7.0,47,0.00,,---,0.00,VWS V14.01,2013-04-14 14:25:00,
2013-04-14 10:30:00,59.8,39.0,30.06,East,79,6.0,8.0,46,0.00,,---,0.00,VWS V14.01,2013-04-14 14:30:00,
2013-04-14 10:35:00,59.6,38.2,30.06,ESE,111,2.0,11.0,45,0.00,,---,0.00,VWS V14.01,2013-04-14 14:35:00,
2013-04-14 10:40:00,59.5,39.8,30.06,SSE,159,2.0,11.0,48,0.00,,---,0.00,VWS V14.01,2013-04-14 14:40:00,
2013-04-14 10:45:00,59.7,38.3,30.06,ENE,63,5.0,11.0,45,0.00,,---,0.00,VWS V14.01,2013-04-14 14:45:00,
2013-04-14 10:50:00,59.4,37.5,30.06,ENE,65,1.0,11.0,44,0.00,,---,0.00,VWS V14.01,2013-04-14 14:50:00,
2013-04-14 10:55:00,60.0,39.2,30.07,East,83,2.0,11.0,46,0.00,,---,0.00,VWS V14.01,2013-04-14 14:55:00,
2013-04-14 11:00:00,60.6,39.7,30.07,SE,124,2.0,11.0,46,0.00,,---,0.00,VWS V14.01,2013-04-14 15:00:00,
2013-04-14 11:05:00,60.7,39.8,30.07,ESE,117,3.0,6.0,46,0.00,,---,0.00,VWS V14.01,2013-04-14 15:05:00,
2013-04-14 11:10:00,61.0,40.7,30.07,ENE,61,0.0,6.0,47,0.00,,---,0.00,VWS V14.01,2013-04-14 15:10:00,
2013-04-14 11:15:00,61.4,39.9,30.07,NNE,25,0.0,6.0,45,0.00,,---,0.00,VWS V14.01,2013-04-14 15:15:00,
2013-04-14 11:20:00,61.4,40.5,30.07,ENE,75,4.0,9.0,46,0.00,,---,0.00,VWS V14.01,2013-04-14 15:20:00,
2013-04-14 11:25:00,61.0,39.0,30.07,ESE,108,2.0,9.0,44,0.00,,---,0.00,VWS V14.01,2013-04-14 15:25:00,
2013-04-14 11:30:00,61.4,39.9,30.07,East,90,2.0,9.0,45,0.00,,---,0.00,VWS V14.01,2013-04-14 15:30:00,
2013-04-14 11:35:00,62.3,42.9,30.07,SE,128,1.0,5.0,49,0.00,,---,0.00,VWS V14.01,2013-04-14 15:35:00,
2013-04-14 11:40:00,63.1,40.9,30.07,SE,142,2.0,5.0,44,0.00,,---,0.00,VWS V14.01,2013-04-14 15:40:00,
2013-04-14 11:45:00,63.5,41.2,30.07,ENE,74,9.0,9.0,44,0.00,,---,0.00,VWS V14.01,2013-04-14 15:45:00,
2013-04-14 11:50:00,62.5,41.5,30.07,ENE,65,4.0,10.0,46,0.00,,---,0.00,VWS V14.01,2013-04-14 15:50:00,
2013-04-14 11:55:00,61.8,40.3,30.07,East,91,3.0,10.0,45,0.00,,---,0.00,VWS V14.01,2013-04-14 15:55:00,
2013-04-14 12:00:00,62.0,41.6,30.06,ENE,71,4.0,10.0,47,0.00,,---,0.00,VWS V14.01,2013-04-14 16:00:00,
2013-04-14 12:05:00,61.8,41.4,30.06,ENE,73,10.0,11.0,47,0.00,,---,0.00,VWS V14.01,2013-04-14 16:05:00,
2013-04-14 12:10:00,61.4,42.6,30.06,East,100,2.0,11.0,50,0.00,,---,0.00,VWS V14.01,2013-04-14 16:10:00,
2013-04-14 12:15:00,62.1,43.3,30.06,SE,132,2.0,11.0,50,0.00,,---,0.00,VWS V14.01,2013-04-14 16:15:00,
2013-04-14 12:20:00,62.5,43.1,30.06,ESE,114,6.0,11.0,49,0.00,,---,0.00,VWS V14.01,2013-04-14 16:20:00,
2013-04-14 12:25:00,62.1,41.1,30.05,East,96,4.0,11.0,46,0.00,,---,0.00,VWS V14.01,2013-04-14 16:25:00,
2013-04-14 12:30:00,61.8,40.8,30.05,East,85,1.0,11.0,46,0.00,,---,0.00,VWS V14.01,2013-04-14 16:30:00,
2013-04-14 12:35:00,62.2,42.3,30.05,NE,34,7.0,7.0,48,0.00,,---,0.00,VWS V14.01,2013-04-14 16:35:00,
2013-04-14 12:40:00,62.7,42.2,30.05,ESE,115,4.0,10.0,47,0.00,,---,0.00,VWS V14.01,2013-04-14 16:40:00,
2013-04-14 12:45:00,63.3,45.4,30.04,ESE,123,2.0,10.0,52,0.00,,---,0.00,VWS V14.01,2013-04-14 16:45:00,
2013-04-14 12:50:00,63.5,41.8,30.04,East,89,2.0,10.0,45,0.00,,---,0.00,VWS V14.01,2013-04-14 16:50:00,
2013-04-14 12:55:00,63.4,42.8,30.04,ENE,61,2.0,10.0,47,0.00,,---,0.00,VWS V14.01,2013-04-14 16:55:00,
2013-04-14 13:00:00,63.7,43.7,30.04,ESE,115,6.0,10.0,48,0.00,,---,0.00,VWS V14.01,2013-04-14 17:00:00,
2013-04-14 13:05:00,64.0,42.3,30.04,ENE,65,4.0,7.0,45,0.00,,---,0.00,VWS V14.01,2013-04-14 17:05:00,
2013-04-14 13:10:00,64.4,43.2,30.04,NE,37,3.0,7.0,46,0.00,,---,0.00,VWS V14.01,2013-04-14 17:10:00,
2013-04-14 13:15:00,64.5,43.3,30.04,ENE,73,2.0,9.0,46,0.00,,---,0.00,VWS V14.01,2013-04-14 17:15:00,
2013-04-14 13:20:00,64.7,42.9,30.04,East,83,0.0,9.0,45,0.00,,---,0.00,VWS V14.01,2013-04-14 17:20:00,
2013-04-14 13:25:00,65.2,40.3,30.04,West,262,0.0,9.0,40,0.00,,---,0.00,VWS V14.01,2013-04-14 17:25:00,
2013-04-14 13:30:00,66.1,42.4,30.04,NE,39,2.0,9.0,42,0.00,,---,0.00,VWS V14.01,2013-04-14 17:30:00,
2013-04-14 13:35:00,66.5,41.5,30.04,NE,50,6.0,7.0,40,0.00,,---,0.00,VWS V14.01,2013-04-14 17:35:00,
2013-04-14 13:40:00,66.4,43.2,30.04,NE,45,4.0,7.0,43,0.00,,---,0.00,VWS V14.01,2013-04-14 17:40:00,
2013-04-14 13:45:00,66.6,44.6,30.04,East,91,3.0,9.0,45,0.00,,---,0.00,VWS V14.01,2013-04-14 17:45:00,
2013-04-14 13:50:00,67.0,42.5,30.03,East,85,3.0,9.0,41,0.00,,---,0.00,VWS V14.01,2013-04-14 17:50:00,
2013-04-14 13:55:00,67.2,43.4,30.03,SSE,163,1.0,9.0,42,0.00,,---,0.00,VWS V14.01,2013-04-14 17:55:00,
2013-04-14 14:00:00,67.8,42.0,30.04,NNE,20,1.0,9.0,39,0.00,,---,0.00,VWS V14.01,2013-04-14 18:00:00,
2013-04-14 14:05:00,67.5,41.7,30.04,WSW,250,2.0,10.0,39,0.00,,---,0.00,VWS V14.01,2013-04-14 18:05:00,
2013-04-14 14:10:00,67.3,42.2,30.03,NE,37,2.0,10.0,40,0.00,,---,0.00,VWS V14.01,2013-04-14 18:10:00,
2013-04-14 14:15:00,67.3,42.8,30.03,SW,218,1.0,10.0,41,0.00,,---,0.00,VWS V14.01,2013-04-14 18:15:00,
2013-04-14 14:20:00,67.8,43.3,30.03,NNE,30,1.0,10.0,41,0.00,,---,0.00,VWS V14.01,2013-04-14 18:20:00,
2013-04-14 14:25:00,68.6,43.3,30.03,SSW,212,2.0,10.0,40,0.00,,---,0.00,VWS V14.01,2013-04-14 18:25:00,
2013-04-14 14:30:00,68.7,41.4,30.03,West,281,1.0,10.0,37,0.00,,---,0.00,VWS V14.01,2013-04-14 18:30:00,
2013-04-14 14:35:00,69.0,44.3,30.03,SSW,197,1.0,5.0,41,0.00,,---,0.00,VWS V14.01,2013-04-14 18:35:00,
2013-04-14 14:40:00,69.2,43.9,30.03,SW,236,4.0,7.0,40,0.00,,---,0.00,VWS V14.01,2013-04-14 18:40:00,
2013-04-14 14:45:00,69.5,43.5,30.03,SW,227,1.0,7.0,39,0.00,,---,0.00,VWS V14.01,2013-04-14 18:45:00,
2013-04-14 14:50:00,69.8,44.4,30.03,WSW,255,0.0,7.0,40,0.00,,---,0.00,VWS V14.01,2013-04-14 18:50:00,
2013-04-14 14:55:00,70.3,42.8,30.03,SW,233,0.0,7.0,37,0.00,,---,0.00,VWS V14.01,2013-04-14 18:55:00,
2013-04-14 15:00:00,70.3,42.8,30.02,SSW,210,1.0,7.0,37,0.00,,---,0.00,VWS V14.01,2013-04-14 19:00:00,
2013-04-14 15:05:00,70.2,44.1,30.02,WSW,243,0.0,4.0,39,0.00,,---,0.00,VWS V14.01,2013-04-14 19:05:00,
2013-04-14 15:10:00,70.9,44.7,30.02,SSE,168,2.0,4.0,39,0.00,,---,0.00,VWS V14.01,2013-04-14 19:10:00,
2013-04-14 15:15:00,71.2,44.3,30.02,ESE,123,1.0,5.0,38,0.00,,---,0.00,VWS V14.01,2013-04-14 19:15:00,
2013-04-14 15:20:00,70.9,44.7,30.02,West,276,1.0,5.0,39,0.00,,---,0.00,VWS V14.01,2013-04-14 19:20:00,
2013-04-14 15:25:00,70.7,45.2,30.02,SSW,197,0.0,5.0,40,0.00,,---,0.00,VWS V14.01,2013-04-14 19:25:00,
2013-04-14 15:30:00,70.9,44.0,30.01,NE,56,0.0,5.0,38,0.00,,---,0.00,VWS V14.01,2013-04-14 19:30:00,
2013-04-14 15:35:00,71.0,42.0,30.01,NNE,25,1.0,3.0,35,0.00,,---,0.00,VWS V14.01,2013-04-14 19:35:00,
2013-04-14 15:40:00,71.2,45.0,30.01,NW,311,0.0,3.0,39,0.00,,---,0.00,VWS V14.01,2013-04-14 19:40:00,
2013-04-14 15:45:00,71.2,43.6,30.00,ENE,66,0.0,3.0,37,0.00,,---,0.00,VWS V14.01,2013-04-14 19:45:00,
2013-04-14 15:50:00,71.6,44.0,30.00,NNE,25,1.0,3.0,37,0.00,,---,0.00,VWS V14.01,2013-04-14 19:50:00,
2013-04-14 15:55:00,72.2,43.8,30.00,WNW,297,1.0,3.0,36,0.00,,---,0.00,VWS V14.01,2013-04-14 19:55:00,
2013-04-14 16:00:00,72.6,45.6,29.99,West,274,0.0,3.0,38,0.00,,---,0.00,VWS V14.01,2013-04-14 20:00:00,
2013-04-14 16:05:00,72.9,45.1,29.99,West,264,0.0,2.0,37,0.00,,---,0.00,VWS V14.01,2013-04-14 20:05:00,
2013-04-14 16:10:00,72.7,45.7,29.99,NE,37,1.0,5.0,38,0.00,,---,0.00,VWS V14.01,2013-04-14 20:10:00,
2013-04-14 16:15:00,72.1,45.8,29.99,ENE,75,1.0,8.0,39,0.00,,---,0.00,VWS V14.01,2013-04-14 20:15:00,
2013-04-14 16:20:00,72.1,45.8,29.98,SW,219,1.0,8.0,39,0.00,,---,0.00,VWS V14.01,2013-04-14 20:20:00,
2013-04-14 16:25:00,72.2,43.1,29.98,WSW,252,0.0,8.0,35,0.00,,---,0.00,VWS V14.01,2013-04-14 20:25:00,
2013-04-14 16:31:00,72.3,43.1,29.98,SW,235,0.0,8.0,35,0.00,,---,0.00,VWS V14.01,2013-04-14 20:31:00,
2013-04-14 16:35:00,72.6,45.6,29.98,NNE,32,2.0,3.0,38,0.00,,---,0.00,VWS V14.01,2013-04-14 20:35:00,
2013-04-14 16:40:00,72.0,45.7,29.98,East,90,3.0,6.0,39,0.00,,---,0.00,VWS V14.01,2013-04-14 20:40:00,
2013-04-14 16:45:00,71.3,45.8,29.98,East,84,1.0,7.0,40,0.00,,---,0.00,VWS V14.01,2013-04-14 20:45:00,
2013-04-14 16:50:00,70.7,44.5,29.98,NE,56,1.0,7.0,39,0.00,,---,0.00,VWS V14.01,2013-04-14 20:50:00,
2013-04-14 16:55:00,70.4,45.0,29.98,East,79,1.0,7.0,40,0.00,,---,0.00,VWS V14.01,2013-04-14 20:55:00,
2013-04-14 17:01:00,70.3,44.9,29.99,ENE,78,1.0,7.0,40,0.00,,---,0.00,VWS V14.01,2013-04-14 21:01:00,
2013-04-14 17:05:00,70.1,44.7,29.99,North,5,0.0,4.0,40,0.00,,---,0.00,VWS V14.01,2013-04-14 21:05:00,
2013-04-14 17:10:00,70.1,46.0,29.99,ENE,69,2.0,4.0,42,0.00,,---,0.00,VWS V14.01,2013-04-14 21:10:00,
2013-04-14 17:16:00,69.9,44.5,29.99,SE,133,1.0,5.0,40,0.00,,---,0.00,VWS V14.01,2013-04-14 21:16:00,
2013-04-14 17:21:00,69.9,45.8,29.99,ENE,70,4.0,6.0,42,0.00,,---,0.00,VWS V14.01,2013-04-14 21:21:00,
2013-04-14 17:26:00,69.9,45.8,30.00,East,80,5.0,6.0,42,0.00,,---,0.00,VWS V14.01,2013-04-14 21:26:00,
2013-04-14 17:31:00,69.7,44.3,29.99,ENE,69,7.0,8.0,40,0.00,,---,0.00,VWS V14.01,2013-04-14 21:31:00,
2013-04-14 17:36:00,69.6,45.5,30.00,ENE,70,3.0,6.0,42,0.00,,---,0.00,VWS V14.01,2013-04-14 21:36:00,
2013-04-14 17:41:00,69.6,44.2,29.99,East,79,3.0,6.0,40,0.00,,---,0.00,VWS V14.01,2013-04-14 21:41:00,
2013-04-14 17:46:00,69.5,45.4,29.99,ENE,75,2.0,6.0,42,0.00,,---,0.00,VWS V14.01,2013-04-14 21:46:00,
2013-04-14 17:51:00,69.3,44.6,29.99,ENE,68,1.0,7.0,41,0.00,,---,0.00,VWS V14.01,2013-04-14 21:51:00,
2013-04-14 17:56:00,69.1,45.1,29.99,SE,124,1.0,7.0,42,0.00,,---,0.00,VWS V14.01,2013-04-14 21:56:00,
2013-04-14 18:01:00,69.0,45.0,29.99,NE,44,3.0,7.0,42,0.00,,---,0.00,VWS V14.01,2013-04-14 22:01:00,
2013-04-14 18:06:00,68.8,43.5,30.00,ESE,104,2.0,6.0,40,0.00,,---,0.00,VWS V14.01,2013-04-14 22:06:00,
2013-04-14 18:11:00,68.7,44.7,30.00,East,99,2.0,6.0,42,0.00,,---,0.00,VWS V14.01,2013-04-14 22:11:00,
2013-04-14 18:16:00,68.6,44.6,30.00,SE,138,3.0,6.0,42,0.00,,---,0.00,VWS V14.01,2013-04-14 22:16:00,
2013-04-14 18:21:00,68.5,45.8,30.00,ENE,61,0.0,6.0,44,0.00,,---,0.00,VWS V14.01,2013-04-14 22:21:00,
2013-04-14 18:26:00,68.3,45.0,30.00,East,82,0.0,6.0,43,0.00,,---,0.00,VWS V14.01,2013-04-14 22:26:00,
2013-04-14 18:31:00,68.1,44.8,30.00,ENE,67,2.0,6.0,43,0.00,,---,0.00,VWS V14.01,2013-04-14 22:31:00,
2013-04-14 18:36:00,68.0,44.7,30.00,NNE,19,1.0,4.0,43,0.00,,---,0.00,VWS V14.01,2013-04-14 22:36:00,
2013-04-14 18:41:00,67.7,45.0,30.00,ENE,69,2.0,4.0,44,0.00,,---,0.00,VWS V14.01,2013-04-14 22:41:00,
2013-04-14 18:46:00,67.4,44.8,30.00,NE,46,0.0,4.0,44,0.00,,---,0.00,VWS V14.01,2013-04-14 22:46:00,
2013-04-14 18:51:00,67.1,45.1,30.00,NE,53,1.0,4.0,45,0.00,,---,0.00,VWS V14.01,2013-04-14 22:51:00,
2013-04-14 18:56:00,66.6,44.0,30.00,ENE,70,1.0,4.0,44,0.00,,---,0.00,VWS V14.01,2013-04-14 22:56:00,
2013-04-14 19:01:00,66.4,44.4,30.01,NE,51,1.0,2.0,45,0.00,,---,0.00,VWS V14.01,2013-04-14 23:01:00,
2013-04-14 19:06:00,66.0,43.5,30.01,ENE,68,1.0,3.0,44,0.00,,---,0.00,VWS V14.01,2013-04-14 23:06:00,
2013-04-14 19:11:00,65.6,44.3,30.01,NE,50,0.0,3.0,46,0.00,,---,0.00,VWS V14.01,2013-04-14 23:11:00,
2013-04-14 19:16:00,65.2,44.5,30.01,ENE,65,0.0,3.0,47,0.00,,---,0.00,VWS V14.01,2013-04-14 23:16:00,
2013-04-14 19:22:00,64.8,44.7,30.01,ENE,65,0.0,3.0,48,0.00,,---,0.00,VWS V14.01,2013-04-14 23:22:00,
2013-04-14 19:27:00,64.1,44.0,30.01,East,86,1.0,3.0,48,0.00,,---,0.00,VWS V14.01,2013-04-14 23:27:00,
2013-04-14 19:32:00,63.8,43.2,30.01,NE,50,1.0,2.0,47,0.00,,---,0.00,VWS V14.01,2013-04-14 23:32:00,
2013-04-14 19:37:00,63.5,43.5,30.01,NE,56,0.0,2.0,48,0.00,,---,0.00,VWS V14.01,2013-04-14 23:37:00,
2013-04-14 19:42:00,63.2,43.7,30.00,NE,54,0.0,2.0,49,0.00,,---,0.00,VWS V14.01,2013-04-14 23:42:00,
2013-04-14 19:47:00,62.8,43.9,30.00,NE,53,0.0,2.0,50,0.00,,---,0.00,VWS V14.01,2013-04-14 23:47:00,
2013-04-14 19:52:00,62.2,43.9,30.01,ENE,65,0.0,3.0,51,0.00,,---,0.00,VWS V14.01,2013-04-14 23:52:00,
2013-04-14 19:57:00,61.8,43.5,30.01,ENE,59,0.0,5.0,51,0.00,,---,0.00,VWS V14.01,2013-04-14 23:57:00,
2013-04-14 20:02:00,61.5,43.7,30.01,ENE,63,0.0,1.0,52,0.00,,---,0.00,VWS V14.01,2013-04-15 00:02:00,
2013-04-14 20:07:00,60.9,44.2,30.01,NE,49,0.0,1.0,54,0.00,,---,0.00,VWS V14.01,2013-04-15 00:07:00,
2013-04-14 20:12:00,60.2,44.5,30.01,NE,34,0.0,1.0,56,0.00,,---,0.00,VWS V14.01,2013-04-15 00:12:00,
2013-04-14 20:17:00,59.5,44.3,30.01,NNW,342,0.0,1.0,57,0.00,,---,0.00,VWS V14.01,2013-04-15 00:17:00,
2013-04-14 20:22:00,58.8,44.5,30.01,NNW,343,0.0,1.0,59,0.00,,---,0.00,VWS V14.01,2013-04-15 00:22:00,
2013-04-14 20:27:00,58.3,44.5,30.02,NNE,26,0.0,1.0,60,0.00,,---,0.00,VWS V14.01,2013-04-15 00:27:00,
2013-04-14 20:32:00,57.9,44.1,30.02,NNE,24,0.0,0.0,60,0.00,,---,0.00,VWS V14.01,2013-04-15 00:32:00,
2013-04-14 20:37:00,57.6,44.3,30.02,North,8,0.0,0.0,61,0.00,,---,0.00,VWS V14.01,2013-04-15 00:37:00,
2013-04-14 20:42:00,57.2,43.9,30.02,North,8,0.0,0.0,61,0.00,,---,0.00,VWS V14.01,2013-04-15 00:42:00,
2013-04-14 20:47:00,56.8,43.9,30.03,North,350,0.0,0.0,62,0.00,,---,0.00,VWS V14.01,2013-04-15 00:47:00,
2013-04-14 20:52:00,56.4,44.0,30.03,North,349,0.0,0.0,63,0.00,,---,0.00,VWS V14.01,2013-04-15 00:52:00,
2013-04-14 20:57:00,56.2,44.2,30.03,North,349,0.0,0.0,64,0.00,,---,0.00,VWS V14.01,2013-04-15 00:57:00,
2013-04-14 21:02:00,56.0,44.4,30.03,North,350,0.0,0.0,65,0.00,,---,0.00,VWS V14.01,2013-04-15 01:02:00,
2013-04-14 21:07:00,55.7,44.1,30.03,North,350,0.0,0.0,65,0.00,,---,0.00,VWS V14.01,2013-04-15 01:07:00,
2013-04-14 21:12:00,55.4,43.8,30.03,North,350,0.0,0.0,65,0.00,,---,0.00,VWS V14.01,2013-04-15 01:12:00,
2013-04-14 21:17:00,55.3,44.2,30.03,North,350,0.0,0.0,66,0.00,,---,0.00,VWS V14.01,2013-04-15 01:17:00,
2013-04-14 21:22:00,55.2,44.0,30.03,North,352,0.0,0.0,66,0.00,,---,0.00,VWS V14.01,2013-04-15 01:22:00,
2013-04-14 21:27:00,55.0,44.3,30.03,North,352,0.0,0.0,67,0.00,,---,0.00,VWS V14.01,2013-04-15 01:27:00,
2013-04-14 21:32:00,54.7,44.4,30.03,North,351,0.0,0.0,68,0.00,,---,0.00,VWS V14.01,2013-04-15 01:32:00,
2013-04-14 21:37:00,54.6,44.3,30.03,North,352,0.0,0.0,68,0.00,,---,0.00,VWS V14.01,2013-04-15 01:37:00,
2013-04-14 21:42:00,54.4,44.5,30.03,North,352,0.0,0.0,69,0.00,,---,0.00,VWS V14.01,2013-04-15 01:42:00,
2013-04-14 21:47:00,54.3,44.0,30.03,North,351,0.0,0.0,68,0.00,,---,0.00,VWS V14.01,2013-04-15 01:47:00,
2013-04-14 21:52:00,54.3,44.4,30.03,North,352,0.0,0.0,69,0.00,,---,0.00,VWS V14.01,2013-04-15 01:52:00,
2013-04-14 21:57:00,54.3,44.7,30.03,North,352,0.0,0.0,70,0.00,,---,0.00,VWS V14.01,2013-04-15 01:57:00,
2013-04-14 22:02:00,54.2,44.6,30.03,NE,36,0.0,0.0,70,0.00,,---,0.00,VWS V14.01,2013-04-15 02:02:00,
2013-04-14 22:07:00,54.2,44.6,30.03,NE,34,0.0,0.0,70,0.00,,---,0.00,VWS V14.01,2013-04-15 02:07:00,
2013-04-14 22:12:00,54.4,44.1,30.03,ENE,59,0.0,0.0,68,0.00,,---,0.00,VWS V14.01,2013-04-15 02:12:00,
2013-04-14 22:17:00,54.6,44.3,30.04,ENE,61,0.0,0.0,68,0.00,,---,0.00,VWS V14.01,2013-04-15 02:17:00,
2013-04-14 22:22:00,54.7,44.7,30.04,ENE,58,0.0,1.0,69,0.00,,---,0.00,VWS V14.01,2013-04-15 02:22:00,
2013-04-14 22:27:00,54.8,44.5,30.04,ENE,59,0.0,1.0,68,0.00,,---,0.00,VWS V14.01,2013-04-15 02:27:00,
2013-04-14 22:32:00,54.8,44.5,30.04,NE,52,0.0,1.0,68,0.00,,---,0.00,VWS V14.01,2013-04-15 02:32:00,
2013-04-14 22:37:00,54.7,44.4,30.04,NE,52,0.0,1.0,68,0.00,,---,0.00,VWS V14.01,2013-04-15 02:37:00,
2013-04-14 22:42:00,54.7,44.7,30.04,North,8,0.0,1.0,69,0.00,,---,0.00,VWS V14.01,2013-04-15 02:42:00,
2013-04-14 22:47:00,54.6,44.7,30.04,NNE,15,0.0,1.0,69,0.00,,---,0.00,VWS V14.01,2013-04-15 02:47:00,
2013-04-14 22:52:00,54.5,44.9,30.04,NNE,15,0.0,1.0,70,0.00,,---,0.00,VWS V14.01,2013-04-15 02:52:00,
2013-04-14 22:57:00,54.3,44.7,30.04,NNE,15,0.0,1.0,70,0.00,,---,0.00,VWS V14.01,2013-04-15 02:57:00,
2013-04-14 23:02:00,54.2,45.0,30.04,NNE,16,1.0,1.0,71,0.00,,---,0.00,VWS V14.01,2013-04-15 03:02:00,
2013-04-14 23:07:00,54.2,45.0,30.04,NNE,18,0.0,1.0,71,0.00,,---,0.00,VWS V14.01,2013-04-15 03:07:00,
2013-04-14 23:12:00,54.1,45.3,30.04,NNE,15,0.0,1.0,72,0.00,,---,0.00,VWS V14.01,2013-04-15 03:12:00,
2013-04-14 23:17:00,53.9,45.1,30.04,NNE,15,0.0,1.0,72,0.00,,---,0.00,VWS V14.01,2013-04-15 03:17:00,
2013-04-14 23:22:00,53.8,45.0,30.04,NNE,16,0.0,1.0,72,0.00,,---,0.00,VWS V14.01,2013-04-15 03:22:00,
2013-04-14 23:27:00,53.7,44.9,30.05,NNE,15,0.0,1.0,72,0.00,,---,0.00,VWS V14.01,2013-04-15 03:27:00,
2013-04-14 23:32:00,53.5,45.1,30.05,NNE,15,0.0,0.0,73,0.00,,---,0.00,VWS V14.01,2013-04-15 03:32:00,
2013-04-14 23:37:00,53.4,45.0,30.05,NNE,15,0.0,0.0,73,0.00,,---,0.00,VWS V14.01,2013-04-15 03:37:00,
2013-04-14 23:42:00,53.4,45.0,30.05,NNE,15,0.0,0.0,73,0.00,,---,0.00,VWS V14.01,2013-04-15 03:42:00,
2013-04-14 23:47:00,53.4,45.0,30.05,NNE,15,0.0,0.0,73,0.00,,---,0.00,VWS V14.01,2013-04-15 03:47:00,
2013-04-14 23:52:00,53.3,44.9,30.05,NNE,15,0.0,0.0,73,0.00,,---,0.00,VWS V14.01,2013-04-15 03:52:00,
2013-04-14 23:57:00,53.3,45.2,30.05,NNE,16,0.0,0.0,74,0.00,,---,0.00,VWS V14.01,2013-04-15 03:57:00,